Preview of NWS' New Version of Forecast
This preview is not operational and should not be used for support decisions.

Regional Weather Roundup (RWR)

Issued by National Weather Service (NWS)

                            
000
ASUS46 KPQR 182210
RWROR 

OREGON REGIONAL WEATHER ROUNDUP
NATIONAL WEATHER SERVICE PORTLAND OR
300 PM PDT SAT MAY 18 2019

NOTE: "FAIR" INDICATES FEW OR NO CLOUDS BELOW 12,000 FEET WITH
NO SIGNIFICANT WEATHER AND/OR OBSTRUCTIONS TO VISIBILITY.

ORZ001>013-182300-
NORTHWEST OREGON

  
CITY           SKY/WX    TMP DP  RH WIND       PRES   REMARKS
ASTORIA        FAIR      67  51  56 NE15      29.64F                  
TILLAMOOK      FAIR      63  52  67 W5        29.65F                  
NEWPORT        LGT RAIN  54  48  82 SW5       29.70S                  
PORTLAND       CLOUDY    74  42  31 E14       29.63F                  
VANCOUVER WA   FAIR      72  41  32 E10       29.63F                  
SCAPPOOSE      FAIR      73  47  39 NE6       29.64F                  
HILLSBORO      FAIR      68  48  48 N7        29.63F                  
AURORA         FAIR      71  47  42 N10       29.62F                  
MCMINNVILLE    FAIR      70  48  45 NE10      29.61F                  
SALEM          PTSUNNY   70  46  42 NE12      29.60F                  
CORVALLIS      LGT RAIN  65  55  70 W3        29.62F                  
EUGENE         TSTM      58  50  75 CALM      29.63S                  
$$

ORZ021-028-182300-
SOUTHWEST OREGON

  
CITY           SKY/WX    TMP DP  RH WIND       PRES   REMARKS
NORTH BEND     LGT RAIN  55  52  89 E3        29.67F                  
BROOKINGS      CLOUDY    58  47  66 S15G21      N/A                   
ROSEBURG       PTSUNNY   67  40  37 SE5       29.61F                  
SEXTON SUMMIT  LGT RAIN  44  44 100 S9        29.67S VSB<1/4          
GRANTS PASS    LGT RAIN  55  50  82 CALM      29.69S                  
MEDFORD        CLOUDY    63  38  39 SE23G29   29.64F                  
$$

ORZ014>016-041-182300-
COLUMBIA GORGE

  
CITY           SKY/WX    TMP DP  RH WIND       PRES   REMARKS
TROUTDALE      FAIR      70  49  47 E10       29.63F                  
HOOD RIVER     FAIR      70  37  30 E10       29.71F                  
THE DALLES     FAIR      75  39  27 E12       29.69F                  
$$

ORZ029>031-041-044-049-050-061>064-502-503-505>511-182300-
EASTERN OREGON

  
CITY           SKY/WX    TMP DP  RH WIND       PRES   REMARKS
MADRAS         LGT RAIN  61  41  48 W9G17     29.71S                  
REDMOND        PTSUNNY   63  28  26 S20G35    29.70F                  
BEND           FAIR      63  27  25 SE14G21   29.70F                  
PRINEVILLE     FAIR      61  34  36 S7G17     29.70S                  
KLAMATH FALLS  CLOUDY    48  36  63 S20G25    29.77S                  
LAKEVIEW       PTSUNNY   55  35  47 S15       29.78F                  
HERMISTON      FAIR      74  42  31 NE12      29.73F                  
PENDLETON      FAIR      70  43  37 NE7       29.73F                  
JOHN DAY       CLOUDY    62  37  38 S18G26    29.78F                  
MEACHAM        PTSUNNY   61  38  42 VRB3      29.79F                  
LA GRANDE      FAIR      65  39  38 SE12G18   29.79F                  
BAKER CITY     CLOUDY    64  37  36 SE13      29.81F                  
BURNS          PTSUNNY   59  40  49 E13       29.80F                  
ROME             N/A     63  31  30 S14       29.79F                  
ONTARIO        FAIR      69  39  33 NE6       29.83F                  
$$